Time,TemperatureF,DewpointF,PressureIn,WindDirection,WindDirectionDegrees,WindSpeedMPH,WindSpeedGustMPH,Humidity,HourlyPrecipIn,Conditions,Clouds,dailyrainin,SoftwareType,DateUTC
2013-03-17 00:00:00,54.1,37.2,29.96,WSW,255,13.0,19.0,38,0.00,,,0.00,meteohub,2013-03-17 07:00:00,
2013-03-17 00:06:00,53.8,36.7,29.96,WSW,238,13.0,20.0,37,0.00,,,0.00,meteohub,2013-03-17 07:06:00,
2013-03-17 00:11:00,53.1,36.7,29.96,NNE,16,12.0,20.0,37,0.00,,,0.00,meteohub,2013-03-17 07:11:00,
2013-03-17 00:16:00,53.1,36.7,29.96,WSW,255,18.0,20.0,37,0.00,,,0.00,meteohub,2013-03-17 07:16:00,
2013-03-17 00:21:00,52.3,36.7,29.95,SSE,160,15.0,21.0,37,0.00,,,0.00,meteohub,2013-03-17 07:21:00,
2013-03-17 00:27:00,51.3,36.5,29.95,WSW,257,17.0,22.0,37,0.00,,,0.00,meteohub,2013-03-17 07:27:00,
2013-03-17 00:32:00,50.5,36.5,29.95,West,262,16.0,22.0,37,0.00,,,0.00,meteohub,2013-03-17 07:32:00,
2013-03-17 00:37:00,50.2,36.5,29.94,WSW,245,16.0,25.0,37,0.00,,,0.00,meteohub,2013-03-17 07:37:00,
2013-03-17 00:42:00,49.8,36.3,29.94,SW,215,17.0,25.0,37,0.00,,,0.00,meteohub,2013-03-17 07:42:00,
2013-03-17 00:49:00,49.8,36.3,29.94,SSW,203,12.0,25.0,37,0.00,,,0.00,meteohub,2013-03-17 07:49:00,
2013-03-17 00:54:00,49.8,36.3,29.94,WSW,257,14.0,29.0,37,0.00,,,0.00,meteohub,2013-03-17 07:54:00,
2013-03-17 01:00:00,50.0,36.1,29.94,WNW,298,18.0,29.0,37,0.00,,,0.00,meteohub,2013-03-17 08:00:00,
2013-03-17 01:05:00,50.4,36.1,29.94,NW,321,15.0,29.0,37,0.00,,,0.00,meteohub,2013-03-17 08:05:00,
2013-03-17 01:10:00,50.5,36.1,29.94,WSW,249,23.0,24.0,37,0.00,,,0.00,meteohub,2013-03-17 08:10:00,
2013-03-17 01:17:00,50.7,36.1,29.95,WSW,258,17.0,25.0,37,0.00,,,0.00,meteohub,2013-03-17 08:17:00,
2013-03-17 01:22:00,50.5,36.0,29.94,North,4,14.0,25.0,37,0.00,,,0.00,meteohub,2013-03-17 08:22:00,
2013-03-17 01:27:00,50.4,36.0,29.94,SW,225,20.0,25.0,37,0.00,,,0.00,meteohub,2013-03-17 08:27:00,
2013-03-17 01:32:00,50.4,35.8,29.94,East,101,14.0,26.0,37,0.00,,,0.00,meteohub,2013-03-17 08:32:00,
2013-03-17 01:37:00,50.2,35.8,29.94,WSW,245,19.0,26.0,37,0.00,,,0.00,meteohub,2013-03-17 08:37:00,
2013-03-17 01:42:00,49.8,35.8,29.94,NE,43,19.0,26.0,37,0.00,,,0.00,meteohub,2013-03-17 08:42:00,
2013-03-17 01:47:00,49.8,35.8,29.94,NW,310,11.0,26.0,37,0.00,,,0.00,meteohub,2013-03-17 08:47:00,
2013-03-17 01:52:00,49.5,36.3,29.94,WNW,297,8.0,22.0,38,0.00,,,0.00,meteohub,2013-03-17 08:52:00,
2013-03-17 01:57:00,49.6,35.6,29.94,SW,233,17.0,22.0,37,0.00,,,0.00,meteohub,2013-03-17 08:57:00,
2013-03-17 02:03:00,49.8,35.6,29.94,West,267,12.0,22.0,37,0.00,,,0.00,meteohub,2013-03-17 09:03:00,
2013-03-17 02:08:00,50.0,36.3,29.94,WSW,240,17.0,20.0,38,0.00,,,0.00,meteohub,2013-03-17 09:08:00,
2013-03-17 02:14:00,50.7,35.4,29.94,NNW,347,10.0,20.0,37,0.00,,,0.00,meteohub,2013-03-17 09:14:00,
2013-03-17 02:19:00,50.9,36.1,29.94,West,278,8.0,21.0,38,0.00,,,0.00,meteohub,2013-03-17 09:19:00,
2013-03-17 02:24:00,51.3,36.1,29.94,NE,44,8.0,21.0,38,0.00,,,0.00,meteohub,2013-03-17 09:24:00,
2013-03-17 02:29:00,51.3,36.0,29.95,SW,235,13.0,21.0,38,0.00,,,0.00,meteohub,2013-03-17 09:29:00,
2013-03-17 02:34:00,51.1,36.0,29.94,West,271,11.0,16.0,38,0.00,,,0.00,meteohub,2013-03-17 09:34:00,
2013-03-17 02:40:00,50.7,36.0,29.94,WSW,239,17.0,17.0,38,0.00,,,0.00,meteohub,2013-03-17 09:40:00,
2013-03-17 02:45:00,51.1,36.0,29.94,WNW,288,9.0,16.0,38,0.00,,,0.00,meteohub,2013-03-17 09:45:00,
2013-03-17 02:50:00,50.7,35.8,29.94,WNW,294,9.0,21.0,38,0.00,,,0.00,meteohub,2013-03-17 09:50:00,
2013-03-17 02:55:00,50.5,35.6,29.94,SW,215,11.0,21.0,38,0.00,,,0.00,meteohub,2013-03-17 09:55:00,
2013-03-17 03:00:00,50.7,35.6,29.94,ENE,63,13.0,24.0,38,0.00,,,0.00,meteohub,2013-03-17 10:00:00,
2013-03-17 03:06:00,50.9,35.6,29.94,WSW,248,16.0,24.0,38,0.00,,,0.00,meteohub,2013-03-17 10:06:00,
2013-03-17 03:11:00,51.1,35.6,29.94,NNW,340,8.0,24.0,38,0.00,,,0.00,meteohub,2013-03-17 10:11:00,
2013-03-17 03:16:00,50.9,35.6,29.94,WNW,291,10.0,21.0,38,0.00,,,0.00,meteohub,2013-03-17 10:16:00,
2013-03-17 03:22:00,50.4,35.6,29.94,West,273,12.0,21.0,38,0.00,,,0.00,meteohub,2013-03-17 10:22:00,
2013-03-17 03:27:00,50.4,35.6,29.94,SSW,201,11.0,20.0,38,0.00,,,0.00,meteohub,2013-03-17 10:27:00,
2013-03-17 03:32:00,49.8,35.6,29.94,SSE,150,17.0,20.0,38,0.00,,,0.00,meteohub,2013-03-17 10:32:00,
2013-03-17 03:37:00,49.3,35.6,29.94,NE,56,16.0,20.0,38,0.00,,,0.00,meteohub,2013-03-17 10:37:00,
2013-03-17 03:42:00,48.7,35.4,29.94,WSW,246,14.0,21.0,38,0.00,,,0.00,meteohub,2013-03-17 10:42:00,
2013-03-17 03:48:00,48.2,35.4,29.94,SW,214,9.0,23.0,38,0.00,,,0.00,meteohub,2013-03-17 10:48:00,
2013-03-17 03:53:00,47.5,35.4,29.94,SW,214,18.0,23.0,38,0.00,,,0.00,meteohub,2013-03-17 10:53:00,
2013-03-17 03:58:00,47.7,35.4,29.94,NNE,25,11.0,24.0,38,0.00,,,0.00,meteohub,2013-03-17 10:58:00,
2013-03-17 04:03:00,47.7,35.2,29.94,WSW,243,17.0,24.0,38,0.00,,,0.00,meteohub,2013-03-17 11:03:00,
2013-03-17 04:08:00,47.5,35.2,29.94,SW,229,18.0,23.0,38,0.00,,,0.00,meteohub,2013-03-17 11:08:00,
2013-03-17 04:14:00,47.5,35.2,29.95,North,4,9.0,23.0,38,0.00,,,0.00,meteohub,2013-03-17 11:14:00,
2013-03-17 04:19:00,47.8,35.2,29.95,WSW,249,14.0,23.0,38,0.00,,,0.00,meteohub,2013-03-17 11:19:00,
2013-03-17 04:24:00,48.6,35.1,29.95,West,260,9.0,23.0,38,0.00,,,0.00,meteohub,2013-03-17 11:24:00,
2013-03-17 04:30:00,48.7,35.1,29.94,North,9,5.0,21.0,38,0.00,,,0.00,meteohub,2013-03-17 11:30:00,
2013-03-17 04:35:00,49.3,34.9,29.94,South,176,9.0,18.0,38,0.00,,,0.00,meteohub,2013-03-17 11:35:00,
2013-03-17 04:41:00,49.3,34.9,29.95,NE,44,11.0,18.0,38,0.00,,,0.00,meteohub,2013-03-17 11:41:00,
2013-03-17 04:46:00,49.3,34.9,29.95,SW,235,15.0,18.0,38,0.00,,,0.00,meteohub,2013-03-17 11:46:00,
2013-03-17 04:52:00,49.3,34.9,29.95,SE,131,14.0,19.0,38,0.00,,,0.00,meteohub,2013-03-17 11:52:00,
2013-03-17 04:57:00,49.5,34.9,29.95,West,262,16.0,19.0,38,0.00,,,0.00,meteohub,2013-03-17 11:57:00,
2013-03-17 05:02:00,49.6,34.7,29.95,WSW,255,13.0,19.0,38,0.00,,,0.00,meteohub,2013-03-17 12:02:00,
2013-03-17 05:07:00,50.0,34.7,29.94,West,264,9.0,17.0,38,0.00,,,0.00,meteohub,2013-03-17 12:07:00,
2013-03-17 05:12:00,50.2,34.7,29.95,WSW,256,6.0,17.0,38,0.00,,,0.00,meteohub,2013-03-17 12:12:00,
2013-03-17 05:17:00,49.8,34.7,29.95,WSW,238,13.0,16.0,38,0.00,,,0.00,meteohub,2013-03-17 12:17:00,
2013-03-17 05:22:00,49.8,34.5,29.96,WSW,253,10.0,15.0,38,0.00,,,0.00,meteohub,2013-03-17 12:22:00,
2013-03-17 05:27:00,49.6,34.5,29.96,NNW,335,5.0,15.0,38,0.00,,,0.00,meteohub,2013-03-17 12:27:00,
2013-03-17 05:32:00,49.5,34.5,29.96,North,350,3.0,15.0,38,0.00,,,0.00,meteohub,2013-03-17 12:32:00,
2013-03-17 05:37:00,49.5,34.5,29.96,NE,56,4.0,14.0,38,0.00,,,0.00,meteohub,2013-03-17 12:37:00,
2013-03-17 05:42:00,49.5,34.5,29.96,WSW,248,8.0,14.0,38,0.00,,,0.00,meteohub,2013-03-17 12:42:00,
2013-03-17 05:47:00,49.6,34.3,29.96,WSW,258,6.0,13.0,38,0.00,,,0.00,meteohub,2013-03-17 12:47:00,
2013-03-17 05:52:00,49.6,34.3,29.96,ENE,65,4.0,12.0,38,0.00,,,0.00,meteohub,2013-03-17 12:52:00,
2013-03-17 05:58:00,49.8,34.3,29.96,WSW,239,8.0,12.0,38,0.00,,,0.00,meteohub,2013-03-17 12:58:00,
2013-03-17 06:03:00,50.5,34.3,29.96,WSW,252,6.0,14.0,38,0.00,,,0.00,meteohub,2013-03-17 13:03:00,
2013-03-17 06:08:00,50.7,34.2,29.96,West,263,8.0,14.0,38,0.00,,,0.00,meteohub,2013-03-17 13:08:00,
2013-03-17 06:14:00,50.7,34.2,29.96,WSW,240,12.0,14.0,38,0.00,,,0.00,meteohub,2013-03-17 13:14:00,
2013-03-17 06:19:00,51.1,34.2,29.97,NE,50,6.0,15.0,38,0.00,,,0.00,meteohub,2013-03-17 13:19:00,
2013-03-17 06:24:00,51.1,34.0,29.97,NNE,13,6.0,15.0,38,0.00,,,0.00,meteohub,2013-03-17 13:24:00,
2013-03-17 06:29:00,51.3,34.0,29.98,WSW,249,8.0,15.0,38,0.00,,,0.00,meteohub,2013-03-17 13:29:00,
2013-03-17 06:34:00,51.1,34.0,29.98,WSW,245,8.0,14.0,38,0.00,,,0.00,meteohub,2013-03-17 13:34:00,
2013-03-17 06:39:00,50.5,34.0,29.98,NE,39,3.0,14.0,38,0.00,,,0.00,meteohub,2013-03-17 13:39:00,
2013-03-17 06:45:00,50.7,33.8,29.98,West,278,3.0,13.0,37,0.00,,,0.00,meteohub,2013-03-17 13:45:00,
2013-03-17 06:50:00,50.7,33.8,29.99,West,278,3.0,13.0,36,0.00,,,0.00,meteohub,2013-03-17 13:50:00,
2013-03-17 06:55:00,50.7,33.8,29.99,North,-999,-999.0,6.0,37,0.00,,,0.00,meteohub,2013-03-17 13:55:00,
2013-03-17 07:01:00,50.7,34.0,29.99,North,-999,-999.0,3.0,38,0.00,,,0.00,meteohub,2013-03-17 14:01:00,
2013-03-17 07:33:00,53.2,34.0,29.98,North,-999,-999.0,-999.0,38,0.00,,,0.00,meteohub,2013-03-17 14:33:00,
2013-03-17 07:38:00,53.4,33.8,29.98,North,-999,-999.0,-999.0,38,0.00,,,0.00,meteohub,2013-03-17 14:38:00,
2013-03-17 07:44:00,53.8,33.8,29.99,West,260,6.0,-999.0,38,0.00,,,0.00,meteohub,2013-03-17 14:44:00,
2013-03-17 07:49:00,54.0,33.8,29.99,WSW,257,6.0,7.0,38,0.00,,,0.00,meteohub,2013-03-17 14:49:00,
2013-03-17 07:54:00,54.3,33.6,29.99,West,271,3.0,10.0,38,0.00,,,0.00,meteohub,2013-03-17 14:54:00,
2013-03-17 08:00:00,54.7,33.6,29.99,WSW,253,4.0,10.0,38,0.00,,,0.00,meteohub,2013-03-17 15:00:00,
2013-03-17 08:05:00,54.9,33.6,29.99,West,273,11.0,11.0,38,0.00,,,0.00,meteohub,2013-03-17 15:05:00,
2013-03-17 08:10:00,55.4,33.6,29.99,WSW,252,8.0,11.0,38,0.00,,,0.00,meteohub,2013-03-17 15:10:00,
2013-03-17 08:15:00,55.9,33.6,29.99,West,276,7.0,11.0,38,0.00,,,0.00,meteohub,2013-03-17 15:15:00,
2013-03-17 08:20:00,55.9,33.4,30.00,WSW,239,4.0,17.0,38,0.00,,,0.00,meteohub,2013-03-17 15:20:00,
2013-03-17 08:25:00,56.5,33.4,30.01,SW,228,3.0,14.0,38,0.00,,,0.00,meteohub,2013-03-17 15:25:00,
2013-03-17 08:30:00,56.5,33.4,30.01,WNW,285,3.0,14.0,38,0.00,,,0.00,meteohub,2013-03-17 15:30:00,
2013-03-17 08:35:00,56.7,33.4,30.01,WSW,257,4.0,10.0,38,0.00,,,0.00,meteohub,2013-03-17 15:35:00,
2013-03-17 08:40:00,56.7,33.3,30.01,SE,138,4.0,12.0,38,0.00,,,0.00,meteohub,2013-03-17 15:40:00,
2013-03-17 08:45:00,57.0,33.3,30.01,WNW,286,6.0,12.0,38,0.00,,,0.00,meteohub,2013-03-17 15:45:00,
2013-03-17 08:50:00,57.0,33.3,30.01,West,269,5.0,12.0,38,0.00,,,0.00,meteohub,2013-03-17 15:50:00,
2013-03-17 08:55:00,57.4,33.3,30.01,NW,312,6.0,12.0,38,0.00,,,0.00,meteohub,2013-03-17 15:55:00,
2013-03-17 09:01:00,57.4,33.3,30.01,WNW,294,4.0,12.0,38,0.00,,,0.00,meteohub,2013-03-17 16:01:00,
2013-03-17 09:06:00,57.6,33.3,30.02,NW,321,7.0,11.0,38,0.00,,,0.00,meteohub,2013-03-17 16:06:00,
2013-03-17 09:12:00,57.7,33.3,30.02,WNW,300,4.0,12.0,38,0.00,,,0.00,meteohub,2013-03-17 16:12:00,
2013-03-17 09:17:00,58.3,33.3,30.02,WNW,302,4.0,12.0,38,0.00,,,0.00,meteohub,2013-03-17 16:17:00,
2013-03-17 09:22:00,59.0,33.3,30.02,SW,236,6.0,12.0,38,0.00,,,0.00,meteohub,2013-03-17 16:22:00,
2013-03-17 09:27:00,59.0,33.1,30.02,West,273,7.0,11.0,38,0.00,,,0.00,meteohub,2013-03-17 16:27:00,
2013-03-17 09:32:00,59.2,33.1,30.02,SW,229,2.0,9.0,38,0.00,,,0.00,meteohub,2013-03-17 16:32:00,
2013-03-17 09:37:00,59.2,33.1,30.02,WSW,245,1.0,9.0,38,0.00,,,0.00,meteohub,2013-03-17 16:37:00,
2013-03-17 09:42:00,59.0,33.1,30.02,West,264,5.0,10.0,38,0.00,,,0.00,meteohub,2013-03-17 16:42:00,
2013-03-17 09:48:00,59.4,33.1,30.03,NNE,25,0.0,10.0,38,0.00,,,0.00,meteohub,2013-03-17 16:48:00,
2013-03-17 09:53:00,60.3,33.1,30.03,WSW,243,1.0,10.0,38,0.00,,,0.00,meteohub,2013-03-17 16:53:00,
2013-03-17 09:58:00,59.9,33.1,30.02,WSW,248,7.0,10.0,38,0.00,,,0.00,meteohub,2013-03-17 16:58:00,
2013-03-17 10:03:00,59.5,33.1,30.02,West,263,1.0,8.0,38,0.00,,,0.00,meteohub,2013-03-17 17:03:00,
2013-03-17 10:08:00,60.1,33.3,30.03,West,260,0.0,9.0,38,0.00,,,0.00,meteohub,2013-03-17 17:08:00,
2013-03-17 10:13:00,60.3,33.3,30.03,SW,235,1.0,9.0,38,0.00,,,0.00,meteohub,2013-03-17 17:13:00,
2013-03-17 10:18:00,60.3,33.3,30.02,WSW,255,5.0,8.0,38,0.00,,,0.00,meteohub,2013-03-17 17:18:00,
2013-03-17 10:24:00,60.4,33.3,30.03,WSW,249,3.0,9.0,38,0.00,,,0.00,meteohub,2013-03-17 17:24:00,
2013-03-17 10:29:00,61.0,33.3,30.02,ESE,117,4.0,9.0,38,0.00,,,0.00,meteohub,2013-03-17 17:29:00,
2013-03-17 10:34:00,62.4,34.0,30.02,WSW,246,3.0,10.0,39,0.00,,,0.00,meteohub,2013-03-17 17:34:00,
2013-03-17 10:39:00,63.0,34.0,30.03,ENE,70,1.0,10.0,39,0.00,,,0.00,meteohub,2013-03-17 17:39:00,
2013-03-17 10:44:00,63.9,34.0,30.03,West,280,2.0,10.0,39,0.00,,,0.00,meteohub,2013-03-17 17:44:00,
2013-03-17 10:49:00,64.4,34.0,30.03,ESE,106,3.0,7.0,39,0.00,,,0.00,meteohub,2013-03-17 17:49:00,
2013-03-17 10:54:00,64.0,34.0,30.03,West,260,1.0,7.0,39,0.00,,,0.00,meteohub,2013-03-17 17:54:00,
2013-03-17 10:59:00,64.6,34.0,30.03,West,259,1.0,8.0,39,0.00,,,0.00,meteohub,2013-03-17 17:59:00,
2013-03-17 11:05:00,65.7,34.2,30.02,East,88,5.0,8.0,39,0.00,,,0.00,meteohub,2013-03-17 18:05:00,
2013-03-17 11:10:00,66.4,34.2,30.02,ENE,65,3.0,7.0,39,0.00,,,0.00,meteohub,2013-03-17 18:10:00,
2013-03-17 11:15:00,66.4,34.2,30.03,NW,324,0.0,6.0,39,0.00,,,0.00,meteohub,2013-03-17 18:15:00,
2013-03-17 11:19:00,67.1,34.2,30.03,SE,141,1.0,11.0,39,0.00,,,0.00,meteohub,2013-03-17 18:19:00,
2013-03-17 11:25:00,66.9,34.2,30.03,East,94,2.0,11.0,39,0.00,,,0.00,meteohub,2013-03-17 18:25:00,
2013-03-17 11:30:00,67.5,34.2,30.03,West,259,3.0,11.0,39,0.00,,,0.00,meteohub,2013-03-17 18:30:00,
2013-03-17 11:36:00,67.6,34.2,30.03,North,358,1.0,7.0,39,0.00,,,0.00,meteohub,2013-03-17 18:36:00,
2013-03-17 11:40:00,68.7,34.2,30.03,NE,49,6.0,6.0,39,0.00,,,0.00,meteohub,2013-03-17 18:40:00,
2013-03-17 11:45:00,68.7,34.2,30.03,ESE,122,1.0,7.0,39,0.00,,,0.00,meteohub,2013-03-17 18:45:00,
2013-03-17 11:51:00,67.8,34.3,30.03,ENE,61,1.0,7.0,39,0.00,,,0.00,meteohub,2013-03-17 18:51:00,
2013-03-17 11:56:00,68.5,34.3,30.03,NE,56,2.0,7.0,39,0.00,,,0.00,meteohub,2013-03-17 18:56:00,
2013-03-17 12:01:00,67.8,34.3,30.03,NE,39,5.0,7.0,39,0.00,,,0.00,meteohub,2013-03-17 19:01:00,
2013-03-17 12:06:00,68.2,34.3,30.03,NW,309,1.0,9.0,39,0.00,,,0.00,meteohub,2013-03-17 19:06:00,
2013-03-17 12:11:00,68.2,34.5,30.03,West,259,5.0,9.0,39,0.00,,,0.00,meteohub,2013-03-17 19:11:00,
2013-03-17 12:17:00,70.0,34.5,30.03,SE,127,1.0,9.0,39,0.00,,,0.00,meteohub,2013-03-17 19:17:00,
2013-03-17 12:22:00,68.7,34.5,30.03,West,276,5.0,9.0,39,0.00,,,0.00,meteohub,2013-03-17 19:22:00,
2013-03-17 12:27:00,69.3,34.5,30.03,West,266,6.0,8.0,39,0.00,,,0.00,meteohub,2013-03-17 19:27:00,
2013-03-17 12:32:00,69.3,34.7,30.03,WSW,249,5.0,8.0,39,0.00,,,0.00,meteohub,2013-03-17 19:32:00,
2013-03-17 12:37:00,68.7,34.7,30.03,WSW,255,8.0,11.0,39,0.00,,,0.00,meteohub,2013-03-17 19:37:00,
2013-03-17 12:42:00,67.5,34.9,30.03,WNW,297,2.0,12.0,39,0.00,,,0.00,meteohub,2013-03-17 19:42:00,
2013-03-17 12:47:00,68.0,34.9,30.03,WSW,242,4.0,12.0,39,0.00,,,0.00,meteohub,2013-03-17 19:47:00,
2013-03-17 12:53:00,67.8,35.1,30.03,NW,305,6.0,12.0,39,0.00,,,0.00,meteohub,2013-03-17 19:53:00,
2013-03-17 12:58:00,67.5,35.1,30.02,West,262,4.0,10.0,39,0.00,,,0.00,meteohub,2013-03-17 19:58:00,
2013-03-17 13:03:00,67.1,35.2,30.02,SSW,203,11.0,12.0,39,0.00,,,0.00,meteohub,2013-03-17 20:03:00,
2013-03-17 13:08:00,66.2,35.2,30.01,SW,236,11.0,14.0,39,0.00,,,0.00,meteohub,2013-03-17 20:08:00,
2013-03-17 13:13:00,65.5,35.8,30.01,West,276,12.0,15.0,40,0.00,,,0.00,meteohub,2013-03-17 20:13:00,
2013-03-17 13:18:00,65.5,36.0,30.01,NE,47,3.0,15.0,40,0.00,,,0.00,meteohub,2013-03-17 20:18:00,
2013-03-17 13:24:00,66.0,36.0,30.01,SW,221,5.0,16.0,40,0.00,,,0.00,meteohub,2013-03-17 20:24:00,
2013-03-17 13:29:00,66.2,36.1,30.00,ENE,64,5.0,16.0,40,0.00,,,0.00,meteohub,2013-03-17 20:29:00,
2013-03-17 13:34:00,65.8,36.1,30.00,SW,230,7.0,16.0,40,0.00,,,0.00,meteohub,2013-03-17 20:34:00,
2013-03-17 13:40:00,64.9,36.1,30.00,ESE,123,5.0,14.0,40,0.00,,,0.00,meteohub,2013-03-17 20:40:00,
2013-03-17 13:45:00,64.2,36.3,30.00,NE,43,3.0,14.0,40,0.00,,,0.00,meteohub,2013-03-17 20:45:00,
2013-03-17 13:50:00,64.4,36.5,30.00,NNE,26,7.0,15.0,40,0.00,,,0.00,meteohub,2013-03-17 20:50:00,
2013-03-17 13:56:00,63.7,36.5,30.00,WSW,239,10.0,17.0,40,0.00,,,0.00,meteohub,2013-03-17 20:56:00,
2013-03-17 14:01:00,64.0,36.7,29.99,WNW,291,10.0,17.0,40,0.00,,,0.00,meteohub,2013-03-17 21:01:00,
2013-03-17 14:06:00,64.0,36.7,29.99,WSW,255,10.0,17.0,40,0.00,,,0.00,meteohub,2013-03-17 21:06:00,
2013-03-17 14:12:00,64.6,36.7,29.99,West,277,9.0,17.0,40,0.00,,,0.00,meteohub,2013-03-17 21:12:00,
2013-03-17 14:17:00,63.5,36.9,29.99,NNE,15,8.0,18.0,40,0.00,,,0.00,meteohub,2013-03-17 21:17:00,
2013-03-17 14:22:00,63.3,36.9,29.99,North,1,5.0,18.0,40,0.00,,,0.00,meteohub,2013-03-17 21:22:00,
2013-03-17 14:27:00,62.8,37.6,29.99,NNW,340,5.0,18.0,41,0.00,,,0.00,meteohub,2013-03-17 21:27:00,
2013-03-17 14:32:00,63.0,37.6,29.98,North,359,4.0,16.0,41,0.00,,,0.00,meteohub,2013-03-17 21:32:00,
2013-03-17 14:38:00,62.4,37.8,29.98,NNW,345,8.0,16.0,41,0.00,,,0.00,meteohub,2013-03-17 21:38:00,
2013-03-17 14:43:00,62.1,37.9,29.99,West,271,8.0,18.0,41,0.00,,,0.00,meteohub,2013-03-17 21:43:00,
2013-03-17 14:48:00,62.6,37.9,29.99,WSW,239,13.0,18.0,41,0.00,,,0.00,meteohub,2013-03-17 21:48:00,
2013-03-17 14:53:00,62.2,37.9,29.98,NE,47,7.0,17.0,41,0.00,,,0.00,meteohub,2013-03-17 21:53:00,
2013-03-17 14:59:00,62.8,38.1,29.98,North,11,5.0,17.0,41,0.00,,,0.00,meteohub,2013-03-17 21:59:00,
2013-03-17 15:04:00,62.6,38.1,29.98,West,271,12.0,17.0,41,0.00,,,0.00,meteohub,2013-03-17 22:04:00,
2013-03-17 15:09:00,62.4,38.3,29.98,WSW,252,12.0,17.0,41,0.00,,,0.00,meteohub,2013-03-17 22:09:00,
2013-03-17 15:14:00,62.8,38.3,29.98,SW,231,12.0,17.0,41,0.00,,,0.00,meteohub,2013-03-17 22:14:00,
2013-03-17 15:20:00,63.0,38.3,29.97,North,8,6.0,18.0,41,0.00,,,0.00,meteohub,2013-03-17 22:20:00,
2013-03-17 15:25:00,63.0,38.5,29.97,North,352,4.0,17.0,41,0.00,,,0.00,meteohub,2013-03-17 22:25:00,
2013-03-17 15:30:00,63.1,38.5,29.97,West,259,11.0,17.0,41,0.00,,,0.00,meteohub,2013-03-17 22:30:00,
2013-03-17 15:36:00,62.2,38.5,29.97,NE,34,9.0,18.0,41,0.00,,,0.00,meteohub,2013-03-17 22:36:00,
2013-03-17 15:41:00,61.9,38.7,29.97,SW,214,11.0,18.0,41,0.00,,,0.00,meteohub,2013-03-17 22:41:00,
2013-03-17 15:46:00,61.9,38.7,29.97,East,100,10.0,19.0,41,0.00,,,0.00,meteohub,2013-03-17 22:46:00,
2013-03-17 15:52:00,62.1,38.8,29.97,SW,221,16.0,20.0,41,0.00,,,0.00,meteohub,2013-03-17 22:52:00,
2013-03-17 15:57:00,61.3,38.8,29.97,WSW,248,12.0,20.0,41,0.00,,,0.00,meteohub,2013-03-17 22:57:00,
2013-03-17 16:02:00,61.0,39.0,29.96,ENE,72,11.0,18.0,41,0.00,,,0.00,meteohub,2013-03-17 23:02:00,
2013-03-17 16:07:00,61.5,39.0,29.97,NE,43,4.0,18.0,41,0.00,,,0.00,meteohub,2013-03-17 23:07:00,
2013-03-17 16:13:00,61.9,39.0,29.97,West,259,12.0,17.0,41,0.00,,,0.00,meteohub,2013-03-17 23:13:00,
2013-03-17 16:18:00,61.0,39.2,29.97,NNW,328,9.0,17.0,41,0.00,,,0.00,meteohub,2013-03-17 23:18:00,
2013-03-17 16:23:00,59.7,39.2,29.97,SW,226,15.0,17.0,41,0.00,,,0.00,meteohub,2013-03-17 23:23:00,
2013-03-17 16:28:00,60.6,39.4,29.97,WSW,255,9.0,18.0,41,0.00,,,0.00,meteohub,2013-03-17 23:28:00,
2013-03-17 16:34:00,61.3,39.6,29.97,SW,228,5.0,18.0,41,0.00,,,0.00,meteohub,2013-03-17 23:34:00,
2013-03-17 16:39:00,60.6,40.1,29.97,WSW,245,15.0,18.0,42,0.00,,,0.00,meteohub,2013-03-17 23:39:00,
2013-03-17 16:44:00,59.7,40.1,29.97,NNW,346,7.0,18.0,42,0.00,,,0.00,meteohub,2013-03-17 23:44:00,
2013-03-17 16:49:00,59.5,40.3,29.97,WSW,255,11.0,20.0,42,0.00,,,0.00,meteohub,2013-03-17 23:49:00,
2013-03-17 16:54:00,59.7,40.3,29.96,West,274,7.0,20.0,42,0.00,,,0.00,meteohub,2013-03-17 23:54:00,
2013-03-17 16:59:00,60.1,40.5,29.97,North,6,13.0,19.0,42,0.00,,,0.00,meteohub,2013-03-17 23:59:00,
2013-03-17 17:04:00,60.1,40.5,29.97,WNW,290,11.0,18.0,42,0.00,,,0.00,meteohub,2013-03-18 00:04:00,
2013-03-17 17:09:00,59.5,40.6,29.97,ENE,65,5.0,17.0,42,0.00,,,0.00,meteohub,2013-03-18 00:09:00,
2013-03-17 17:14:00,59.7,40.6,29.97,NNE,20,5.0,17.0,42,0.00,,,0.00,meteohub,2013-03-18 00:14:00,
2013-03-17 17:20:00,59.5,40.8,29.97,SSE,163,7.0,17.0,42,0.00,,,0.00,meteohub,2013-03-18 00:20:00,
2013-03-17 17:25:00,58.5,41.0,29.97,ESE,113,10.0,17.0,42,0.00,,,0.00,meteohub,2013-03-18 00:25:00,
2013-03-17 17:30:00,58.3,41.0,29.97,WSW,252,9.0,18.0,42,0.00,,,0.00,meteohub,2013-03-18 00:30:00,
2013-03-17 17:35:00,57.6,41.2,29.97,West,270,15.0,19.0,42,0.00,,,0.00,meteohub,2013-03-18 00:35:00,
2013-03-17 17:40:00,57.4,41.2,29.97,NNW,332,9.0,19.0,42,0.00,,,0.00,meteohub,2013-03-18 00:40:00,
2013-03-17 17:45:00,56.8,41.4,29.97,WNW,295,10.0,18.0,42,0.00,,,0.00,meteohub,2013-03-18 00:45:00,
2013-03-17 17:51:00,55.9,41.4,29.97,WSW,248,14.0,19.0,42,0.00,,,0.00,meteohub,2013-03-18 00:51:00,
2013-03-17 17:56:00,55.6,41.5,29.98,WSW,241,15.0,19.0,42,0.00,,,0.00,meteohub,2013-03-18 00:56:00,
2013-03-17 18:01:00,55.2,41.5,29.97,West,271,6.0,19.0,42,0.00,,,0.00,meteohub,2013-03-18 01:01:00,
2013-03-17 18:06:00,55.0,41.5,29.97,SW,228,12.0,19.0,42,0.00,,,0.00,meteohub,2013-03-18 01:06:00,
2013-03-17 18:11:00,54.3,41.5,29.97,NNE,13,7.0,17.0,42,0.00,,,0.00,meteohub,2013-03-18 01:11:00,
2013-03-17 18:17:00,54.0,41.7,29.97,WSW,246,10.0,17.0,42,0.00,,,0.00,meteohub,2013-03-18 01:17:00,
2013-03-17 18:22:00,53.8,41.7,29.97,WNW,300,9.0,17.0,42,0.00,,,0.00,meteohub,2013-03-18 01:22:00,
2013-03-17 18:27:00,53.2,41.9,29.97,SW,232,8.0,17.0,42,0.00,,,0.00,meteohub,2013-03-18 01:27:00,
2013-03-17 18:32:00,52.9,41.9,29.97,West,260,9.0,15.0,42,0.00,,,0.00,meteohub,2013-03-18 01:32:00,
2013-03-17 18:37:00,52.3,42.1,29.98,WSW,255,6.0,15.0,42,0.00,,,0.00,meteohub,2013-03-18 01:37:00,
2013-03-17 18:42:00,52.0,42.1,29.97,NNW,340,6.0,15.0,42,0.00,,,0.00,meteohub,2013-03-18 01:42:00,
2013-03-17 18:47:00,51.1,41.5,29.97,WSW,249,11.0,15.0,41,0.00,,,0.00,meteohub,2013-03-18 01:47:00,
2013-03-17 18:53:00,50.2,41.5,29.97,NE,51,4.0,14.0,41,0.00,,,0.00,meteohub,2013-03-18 01:53:00,
2013-03-17 18:58:00,49.8,41.5,29.97,West,263,7.0,14.0,41,0.00,,,0.00,meteohub,2013-03-18 01:58:00,
2013-03-17 19:03:00,49.5,41.5,29.97,SSE,152,7.0,14.0,41,0.00,,,0.00,meteohub,2013-03-18 02:03:00,
2013-03-17 19:08:00,49.5,41.5,29.97,West,278,5.0,14.0,41,0.00,,,0.00,meteohub,2013-03-18 02:08:00,
2013-03-17 19:13:00,49.5,41.5,29.97,West,262,7.0,14.0,41,0.00,,,0.00,meteohub,2013-03-18 02:13:00,
2013-03-17 19:19:00,49.3,41.5,29.97,WSW,251,4.0,12.0,41,0.00,,,0.00,meteohub,2013-03-18 02:19:00,
2013-03-17 19:24:00,49.5,41.5,29.97,West,263,9.0,11.0,41,0.00,,,0.00,meteohub,2013-03-18 02:24:00,
2013-03-17 19:29:00,49.6,41.5,29.98,WSW,242,9.0,11.0,41,0.00,,,0.00,meteohub,2013-03-18 02:29:00,
2013-03-17 19:34:00,49.6,41.5,29.98,West,269,9.0,11.0,41,0.00,,,0.00,meteohub,2013-03-18 02:34:00,
2013-03-17 19:39:00,49.8,41.5,29.98,WSW,256,10.0,11.0,41,0.00,,,0.00,meteohub,2013-03-18 02:39:00,
2013-03-17 19:44:00,49.8,41.5,29.98,West,270,9.0,11.0,41,0.00,,,0.00,meteohub,2013-03-18 02:44:00,
2013-03-17 19:49:00,49.8,41.5,29.98,West,280,9.0,13.0,41,0.00,,,0.00,meteohub,2013-03-18 02:49:00,
2013-03-17 19:55:00,50.2,41.5,29.98,West,262,8.0,14.0,41,0.00,,,0.00,meteohub,2013-03-18 02:55:00,
2013-03-17 20:00:00,49.8,41.4,29.99,West,274,9.0,16.0,41,0.00,,,0.00,meteohub,2013-03-18 03:00:00,
2013-03-17 20:05:00,49.8,40.6,29.99,East,89,11.0,16.0,40,0.00,,,0.00,meteohub,2013-03-18 03:05:00,
2013-03-17 20:10:00,49.8,40.6,29.99,SW,217,6.0,15.0,40,0.00,,,0.00,meteohub,2013-03-18 03:10:00,
2013-03-17 20:15:00,49.6,40.6,29.99,ESE,122,7.0,14.0,40,0.00,,,0.00,meteohub,2013-03-18 03:15:00,
2013-03-17 20:20:00,49.5,40.6,29.99,East,84,5.0,15.0,40,0.00,,,0.00,meteohub,2013-03-18 03:20:00,
2013-03-17 20:26:00,49.1,40.6,29.99,NE,53,7.0,15.0,40,0.00,,,0.00,meteohub,2013-03-18 03:26:00,
2013-03-17 20:31:00,49.3,40.5,29.99,SW,232,10.0,14.0,40,0.00,,,0.00,meteohub,2013-03-18 03:31:00,
2013-03-17 20:36:00,49.5,40.5,29.99,WSW,255,11.0,15.0,40,0.00,,,0.00,meteohub,2013-03-18 03:36:00,
2013-03-17 20:42:00,49.3,40.5,29.99,WSW,238,15.0,15.0,40,0.00,,,0.00,meteohub,2013-03-18 03:42:00,
2013-03-17 20:47:00,49.3,40.5,29.99,West,260,7.0,16.0,40,0.00,,,0.00,meteohub,2013-03-18 03:47:00,
2013-03-17 20:52:00,49.1,40.5,29.99,WSW,246,6.0,16.0,40,0.00,,,0.00,meteohub,2013-03-18 03:52:00,
2013-03-17 20:57:00,48.9,40.3,29.99,WNW,302,9.0,16.0,40,0.00,,,0.00,meteohub,2013-03-18 03:57:00,
2013-03-17 21:00:00,48.9,40.3,29.99,West,274,8.0,16.0,40,0.00,,,0.00,meteohub,2013-03-18 04:00:00,
2013-03-17 21:01:00,48.9,40.3,29.99,SW,236,9.0,14.0,40,0.00,,,0.00,meteohub,2013-03-18 04:01:00,
2013-03-17 21:02:00,49.1,40.3,29.99,West,267,8.0,14.0,40,0.00,,,0.00,meteohub,2013-03-18 04:02:00,
2013-03-17 21:07:00,48.9,40.3,29.99,NW,312,10.0,14.0,40,0.00,,,0.00,meteohub,2013-03-18 04:07:00,
2013-03-17 21:12:00,49.1,40.3,30.00,North,4,7.0,14.0,40,0.00,,,0.00,meteohub,2013-03-18 04:12:00,
2013-03-17 21:17:00,49.1,40.3,30.00,NNE,33,10.0,15.0,40,0.00,,,0.00,meteohub,2013-03-18 04:17:00,
2013-03-17 21:23:00,49.3,40.1,30.00,NW,304,8.0,15.0,40,0.00,,,0.00,meteohub,2013-03-18 04:23:00,
2013-03-17 21:28:00,49.1,40.1,30.00,North,351,7.0,15.0,40,0.00,,,0.00,meteohub,2013-03-18 04:28:00,
2013-03-17 21:33:00,49.1,40.1,30.00,North,8,10.0,14.0,40,0.00,,,0.00,meteohub,2013-03-18 04:33:00,
2013-03-17 21:38:00,49.1,40.1,30.00,WSW,256,9.0,14.0,40,0.00,,,0.00,meteohub,2013-03-18 04:38:00,
2013-03-17 21:44:00,49.1,39.9,30.00,SW,225,8.0,13.0,40,0.00,,,0.00,meteohub,2013-03-18 04:44:00,
2013-03-17 21:49:00,49.5,39.9,30.01,WNW,290,7.0,13.0,40,0.00,,,0.00,meteohub,2013-03-18 04:49:00,
2013-03-17 21:55:00,49.3,39.9,30.00,NNW,346,2.0,11.0,40,0.00,,,0.00,meteohub,2013-03-18 04:55:00,
2013-03-17 22:00:00,49.6,39.7,30.01,NW,309,7.0,10.0,40,0.00,,,0.00,meteohub,2013-03-18 05:00:00,
2013-03-17 22:05:00,49.6,39.7,30.01,WNW,295,6.0,10.0,40,0.00,,,0.00,meteohub,2013-03-18 05:05:00,
2013-03-17 22:10:00,50.0,39.7,30.01,NNW,328,8.0,10.0,40,0.00,,,0.00,meteohub,2013-03-18 05:10:00,
2013-03-17 22:16:00,50.2,39.6,30.01,WNW,293,8.0,12.0,40,0.00,,,0.00,meteohub,2013-03-18 05:16:00,
2013-03-17 22:21:00,50.2,38.7,30.01,West,263,8.0,14.0,39,0.00,,,0.00,meteohub,2013-03-18 05:21:00,
2013-03-17 22:27:00,50.4,38.7,30.01,WSW,245,12.0,14.0,39,0.00,,,0.00,meteohub,2013-03-18 05:27:00,
2013-03-17 22:32:00,50.4,38.7,30.01,WNW,295,8.0,14.0,39,0.00,,,0.00,meteohub,2013-03-18 05:32:00,
2013-03-17 22:37:00,50.4,38.7,30.01,WSW,256,9.0,15.0,39,0.00,,,0.00,meteohub,2013-03-18 05:37:00,
2013-03-17 22:42:00,50.2,38.7,30.01,NE,37,7.0,15.0,39,0.00,,,0.00,meteohub,2013-03-18 05:42:00,
2013-03-17 22:48:00,49.8,38.7,30.02,SW,221,10.0,14.0,39,0.00,,,0.00,meteohub,2013-03-18 05:48:00,
2013-03-17 22:53:00,49.8,38.5,30.02,North,358,7.0,12.0,39,0.00,,,0.00,meteohub,2013-03-18 05:53:00,
2013-03-17 22:58:00,49.8,38.5,30.02,WSW,239,11.0,14.0,39,0.00,,,0.00,meteohub,2013-03-18 05:58:00,
2013-03-17 23:03:00,49.6,38.5,30.01,West,269,6.0,15.0,39,0.00,,,0.00,meteohub,2013-03-18 06:03:00,
2013-03-17 23:08:00,49.3,38.3,30.01,NE,56,7.0,15.0,39,0.00,,,0.00,meteohub,2013-03-18 06:08:00,
2013-03-17 23:13:00,49.1,38.3,30.01,West,273,12.0,15.0,39,0.00,,,0.00,meteohub,2013-03-18 06:13:00,
2013-03-17 23:18:00,49.1,38.3,30.01,WSW,255,15.0,15.0,39,0.00,,,0.00,meteohub,2013-03-18 06:18:00,
2013-03-17 23:23:00,48.9,38.3,30.01,WNW,284,11.0,19.0,39,0.00,,,0.00,meteohub,2013-03-18 06:23:00,
2013-03-17 23:29:00,48.9,38.1,30.02,SSW,207,14.0,19.0,39,0.00,,,0.00,meteohub,2013-03-18 06:29:00,
2013-03-17 23:34:00,48.7,38.1,30.01,WSW,255,11.0,19.0,39,0.00,,,0.00,meteohub,2013-03-18 06:34:00,
2013-03-17 23:39:00,48.7,37.9,30.01,NW,305,14.0,19.0,39,0.00,,,0.00,meteohub,2013-03-18 06:39:00,
2013-03-17 23:44:00,48.7,37.9,30.01,SSE,161,5.0,15.0,39,0.00,,,0.00,meteohub,2013-03-18 06:44:00,
2013-03-17 23:49:00,48.7,37.8,30.01,WNW,288,8.0,15.0,39,0.00,,,0.00,meteohub,2013-03-18 06:49:00,
2013-03-17 23:54:00,48.7,37.8,30.02,West,260,7.0,15.0,39,0.00,,,0.00,meteohub,2013-03-18 06:54:00,